Погода в Гаммарте

Тунис     36°54′26″N   10°19′01″E
темп.,
°C
ветер,
м/с
пор.,
м/с
влажн.,
%
обл.,
%
осадки,
мм/ч
давл.,
гПа
погр.,
м
11 апреля, вс
вс1101:00+14ююв71184100 0.0 1019563
04:00+14ююв71290100 0.0 1017511
07:00+15ююв71285100 0.0 1018701
10:00+18ююв81166100 0.0 1018734
13:00+20юв81060100 0.0 1017774
16:00+19юв91060100 0.0 1016734
19:00+16юв91280100 0.0 1017460
22:00+15юв71188100 0.0 1018470
12 апреля, пн
пн1201:00+15юв6990100 0.0 1018372
04:00+14ююв4689100 0.0 1018247
07:00+15ю2387100 0.0 1019226
10:00+17вюв227180 0.0 1019532
13:00+18ссв446766 0.0 1019751
16:00+19с567047 0.0 1018765
19:00+16сз61083100 0.0 1020549
22:00+14сз8118254 0.0 1022623
13 апреля, вт
вт1301:00+13сз91372100 0.0 1023784
04:00+12сз81264100 0.0 1022784
07:00+13зсз81260100 0.0 10231172
10:00+16сз11144787 0.0 10231337
13:00+17сз12154518 0.0 10231366
16:00+16сз1215514 0.0 10221292
19:00+13сз1015580 0.0 10221014
22:00+13зсз914600 0.0 1023928
14 апреля, ср
ср1401:00+12зсз812651 0.0 1022805
04:00+11сз610685 0.0 1022663
07:00+11з466935 0.0 1022394
10:00+16сз45490 0.0 10221228
13:00+17с55450 0.0 10201102
16:00+16ссв65530 0.0 1019706
19:00+13св3462100 0.0 1019341
22:00+12юв126379 0.0 1020251
15 апреля, чт
чт1501:00+13юв2266100 0.0 1019258
04:00+13юв3473100 0.0 1017274
07:00+14юв4577100 0.1 1017367
10:00+13юв2387100 3.1 1018325
13:00+16юв4571100 3.9 1017709
16:00+14вюв6886100 0.8 1015442
19:00+14вюв698491 0.8 1015503
22:00+14юв6108235 0.0 1016643